Torna al catalogo

FENGYUN 1C DEB

AttivoSSO
NORAD 30005·DEBRIS·🇨🇳 China

Lanciato May 10, 1999 da Taiyuan Satellite Launch Center

Loading…

Prossimi Passaggi (prossime 24 ore)

TLE

AggiornatoSource: Space-Track

Epoca: Sep 14, 2026, 07:56 UTC

1 30005U 99025ME  26257.33058296  .00000885  00000-0  95120-3 0  9992
2 30005  99.3252 208.2017 0345410 115.9234 247.7928 13.52857993966723

Traccia FENGYUN 1C DEB in tempo reale con AllMySat

Download on the App Store